Location: Newark
(7.0858°N, 171.3717°E)
Time: 02:28:50
(UTC+00:00)

A-11 Canister half - Pass Details

Date: 10 December 2020
Orbit: 1517 x 1683 km, 47.2° (Epoch: 16 January)

Event Time Altitude Azimuth Distance (km) Brightness Sun altitude
Rises 07:01:12 0° 299° (WNW) 4,928 12.3 -10.5°
Reaches altitude 10° 07:04:53 10° 289° (WNW) 3,936 11.9 -11.3°
Maximum altitude 07:13:19 31° 232° (SW) 2,634 11.0 -13.3°
Drops below altitude 10° 07:21:39 10° 174° (S) 3,868 11.3 -15.2°
Sets 07:25:18 0° 163° (SSE) 4,830 11.7 -16.0°
